MX Simulator

mxs.drdewracing.com - KaWorkz: 2017 Trap Land (Big Girl Stella!)

Overall Lap Records
PosTimeBikeNo.UIDName
1 1:20.843fc450(2017)24224067Josh Collins | Burbmoto
2 1:21.468fc450(2017)138192alfie richards
3 1:22.156fc450(2018)1338842Lucas Arriagada | @DrDewRacing
4 1:22.820crf450(2018)4431547Seth Shirley
5 1:22.898fc450(2018)15313468Jack Rogers | Team Tubesteak
6 1:22.984fc450(2018)61819712Louis Bunday | Yeti #OnTheHuh
7 1:23.234fc450(2017)55431644Miika Kiviranta
8 1:23.375fc450(2017)32645660rhys harris | mantis bombing
9 1:23.679fc450(2018)22635734sterling lofthouse | @DrDewRacing
10 1:23.750fc450(2018)9934010Guillem Farres
11 1:23.968250sxf(2018)122612Jo Shimoda | HRC Honda
12 1:24.101fc450(2018)7924662ConnerBurger|Covenant Racing
13 1:24.117fc450(2017)2018347Joey Carter | @DrDewRacing
14 1:24.382fc450(2017)54348970Laban alm
15 1:24.390250sxf(2018)16229944filip larsson | phils x motolab
16 1:24.500fc450(2017)70052841Brady Collins | Blackout Decals
17 1:24.515fc450(2017)41751453Reese Riordan | @DrDewRacing
18 1:24.750fc450(2017)10138230Brandon Larsen | Atlas.co
19 1:25.125fc450(2018)71459135Bryson Brown | Dw Media
20 1:25.320fc450(2018)31351967Alexis Beaudoin | privateer
21 1:25.703fc450(2018)70538917Chris Colantoni
22 1:26.031fc450(2018)7744535tommy morgan
23 1:26.265fc450(2017)29222427Colin Libby (Clibby) | BouttaBeBlackOut
24 1:26.492250sxf(2018)6946329evil jason weigandt
25 1:26.593fc450(2018)63647947kp
26 1:26.960fc450(2017)8419120Clean Out Curtis | Professional Goon
27 1:27.101fc450(2018)24640466Ocean Christensen
28 1:27.289250sxf(2018)2753076watu mean
29 1:27.468250sxf(2018)16216305Jeremy monceu
30 1:27.500350sxf(2013)60140180Chubs Peterson
31 1:27.554fc450(2017)2843073HOLE ON TO ER RAN
32 1:27.593fc450(2017)24027786Jack Reid | Privateer
33 1:27.773250sxf(2018)10214999Theo Cavalli | Impact
34 1:27.992fc450(2017)1829547cayne46 | HUNGYY
35 1:28.117fc450(2017)14856110Sammy Hummel | Jim's
36 1:28.234250sxf(2017)1153896Tyler Klipfel l @DrDewRacing
37 1:28.289250sxf(2018)37144777Tom Lemoine | OF
38 1:28.289250sxf(2018)17350847Mason Cadieux| Anderson Graphics Co.
39 1:28.382fc450(2017)92149106Philipp Eiserfey
40 1:28.460250sxf(2018)79940194Linus Hakansson | #BringBackCurvyBikes
41 1:28.656crf450(2018)13644056Tayton | Javers Racing
42 1:28.781fc450(2018)26822137Cudi
43 1:28.804fc450(2018)39283trawwww
44 1:28.820fc450(2018)4149841Bryson Barnwell | @bean_mxb on tiktok
45 1:28.953fc450(2018)7159885rosito
46 1:29.117fc450(2017)1556300Donovan liebl
47 1:29.226250sxf(2018)22632107Reid Templet | Privateer
48 1:29.250250sxf(2018)55120656Nick Niles | UGRC
49 1:29.296fc450(2018)88144342BrocBarnett | TQZY Racing Team
50 1:29.429fc450(2017)62643611Land0n R0bert$
51 1:29.460fc450(2018)41843101Ace Enloe
52 1:29.492rm12511140469lew
53 1:30.046250sxf(2018)11751649NOT.SLO
54 1:30.406250sxf(2018)30918490Trevor Calldeer
55 1:30.460fc450(2018)24144167Brady Olson | D1no #4AZ39
56 1:30.632fc450(2018)9732086Inge-Racing
57 1:30.656250sxf(2018)82337147Ashton| Cyber Dezigns
58 1:30.664fc450(2018)2734294Mael Garnier |SBR
59 1:30.765250sxf(2017)14836655A-LASH | YOUTUBE
60 1:30.773fc450(2018)1440286Cohen Hamby
61 1:30.812250sxf(2018)1954100ra|VI$ion
62 1:31.195250sxf(2018)5874228Tristan Ratzlaff | FNR
63 1:31.257fc450(2018)4249714MUYLLE THEO
64 1:31.281fc450(2018)4753372jayfitz
65 1:31.453250sxf(2018)6452150LoopedLarry|PoorBoyzRacing|
66 1:31.671fc450(2017)33568fuck gino smith
67 1:31.742250sxf(2018)41851606Jernej Pipan
68 1:32.000250sxf(2018)27343628Everett McDonald | North Star
69 1:32.156fc450(2018)29234741jay_chamb | MOTO & GOLF
70 1:32.171crf450(2018)13733020Hunter Fuller | Elevated
71 1:32.242fc450(2018)3250146Joe Hirst
72 1:32.328fc450(2018)22742211Lane Gunning|BBR Decals
73 1:32.335250sxf(2018)22653512Reid Templet | Privateer
74 1:32.562250sxf(2018)10656308Brandon Osgood | Donny Racing
75 1:32.625fc450(2018)25259891Jayden Rodriguez | Niblits & More |
76 1:32.750250sxf(2018)14745824Elliott McDonald | North Star
77 1:33.304250sxf(2018)16435307Arvid Bodin
78 1:33.343250sxf(2018)71759829Schreckomann|717
79 1:33.359crf450(2017)22221769Coffeetits | 222
80 1:33.640250sxf(2018)21445075Bones
81 1:33.671fc450(2018)3239018LEO blin
82 1:34.031250sxf(2018)63049559Alexander Gjemble
83 1:34.031fc450(2018)73233746John W
84 1:34.046rm250(2008)72413789Kyle Morgan | Glusta
85 1:34.062fc450(2018)9746614MG #97
86 1:34.296250sxf(2018)2467772Sexy sexton
87 1:34.546fc450(2018)4540906mando
88 1:34.890250sxf(2018)1841975Travis bixby
89 1:35.039fc450(2017)14317023Eriksson|
90 1:35.117250sxf(2018)7453723polaco
91 1:35.171fc450(2018)3539710Lucas Mercier
92 1:35.304fc450(2018)2039626antonin rondelle|JM Factory Team
93 1:35.421fc450(2018)91915483Doug Bauer | GWR
94 1:35.671fc450(2018)13716613JDB
95 1:35.789250sxf(2018)10849486Joseph Lagueux|Donny Racing
96 1:35.914fc450(2017)28815895Cody Akers | Boots House
97 1:35.968fc450(2017)26210352Gustavo Navega |
98 1:36.015fc450(2018)83452975lsenty834 I SB GFX
99 1:36.156fc450(2017)6041904Tiouis Vaillant
100 1:36.203250sxf(2018)7948236JS'794 / AIRLINE X OF
101 1:36.343250sxf(2018)4342594LA|#JESUS IS LORD
102 1:36.367fc450(2018)45633433jackb
103 1:36.437crf450(2018)71753702huuutsin
104 1:36.640fc450(2017)10252873Ryan Savage
105 1:36.734250sxf(2018)51938067FICK
106 1:36.789250sxf(2018)44454460Sibbo444 I SB GFX
107 1:36.812crf450(2018)46335067Alex "Whiskers" Clark
108 1:36.851250sxf(2018)42157038antonin bernard
109 1:37.265crf450(2018)11759554Freitas | TRYHARD
110 1:37.289fc450(2018)2252340Tate Reed / Atlas.co
111 1:37.367250sxf(2017)5745152wet cement
112 1:37.375rm12540457144Grant_Baumg
113 1:37.515fc450(2017)2649178Aidan
114 1:37.539fc450(2018)80445318liam
115 1:37.773rm1251830398Brock Van Winkle | Niblits & More
116 1:37.890fc450(2017)92459492Cainen Irwin | FNR
117 1:38.132fc450(2017)20449440Hiury Andrade
118 1:38.179fc450(2017)2855485brantley tursky |velocity x turkey prod #doitfordale
119 1:38.320fc450(2017)42051692Gnome Sayan
120 1:38.578fc450(2018)58030033Stefan Ciarafoni
121 1:38.609250sxf(2018)3257491Joe Hirst
122 1:38.625250sxf(2018)85237645Riley Clapp | FNR
123 1:38.843rm250(2008)ZYN57434zyndrome | SOE
124 1:38.898fc450(2017)2273965Dellred
125 1:39.085250sxf(2017)2334231sidjey
126 1:39.281250sxf(2018)4851465ray sist
127 1:39.500fc450(2018)87443629Carson English
128 1:39.585350sxf(2017)71556612THOMAS "DEMETRIOUS JAMES" MEDINE | NIBLITS & MORE
129 1:39.664fc450(2018)13632497BRANDIS DVORAK
130 1:39.695125sx31044093Teo bouteiller/536-Motorsport
131 1:39.742250sxf(2018)2747913Karim Devisscher
132 1:40.007fc450(2018)42718109turkey
133 1:40.210fc450(2018)81750993steven
134 1:40.484fc450(2018)47452135Brandon Keen
135 1:40.523fc450(2018)24559466e.martinez
136 1:40.578250sxf(2018)41144145conner
137 1:40.585fc450(2018)31056797Tanner Baughman | TB310 | XLR8
138 1:40.710fc450(2017)61646282Levi Dertien
139 1:40.773250sxf(2018)11854217cruz peterson | DW media
140 1:40.835fc450(2017)4840411Chad Stonier | csdmotorsports
141 1:40.992250sxf(2018)41344333parker
142 1:41.210250sxf(2018)12155521Speeden | Axiom
143 1:41.257250sxf(2018)60042720timrob
144 1:41.343250sxf(2018)3854669Ian38
145 1:41.523fc450(2018)72851171Connor Hargett| RPC Racing
146 1:41.914250sxf(2018)61151051Glynno
147 1:42.054fc450(2018)84257301Angelo Baraglioli
148 1:42.093fc450(2018)44155650Ricco Hardy | PFR
149 1:42.671250sxf(2018)11526105Quentin Vauzelle|#115
150 1:42.960250sxf(2018)72238299Chandler Beveridge
151 1:43.390250sxf(2018)9556302Corbin Mennen
152 1:43.820250sxf(2018)19131320JOHAN CLETO
153 1:44.023250sxf(2018)1748527bryce netherton
154 1:44.140fc450(2018)61557565Dollynho
155 1:44.218fc450(2018)6811057Anton Stenberg
156 1:44.289250sxf(2018)24751254Dominic Kilpatrick|@247Racing
157 1:44.312fc450(2018)34327634Trapper Naef | CROW GEAR
158 1:44.468fc450(2018)22222097cooper nicol
159 1:44.546250sxf(2018)6848170Jasey Vlot I @DrDewRacing
160 1:44.773fc450(2017)80153909Jack Hendrix SDMF
161 1:44.843250sxf(2018)6758600naynay
162 1:44.992250sxf(2018)72128640colb
163 1:45.164fc450(2017)48155600TJ I SPX.COM
164 1:45.187crf450(2018)23222715Tristo | @Moto.Fails
165 1:45.453250sxf(2018)19148339Jwain
166 1:45.453250sxf(2018)70237050harrison mccann 702
167 1:45.859fc450(2017)72034160Dennis|DrDew-wannabe
168 1:45.890250sxf(2018)1453122Senie
169 1:46.343fc450(2017)22441423Gabe Heffron
170 1:46.359fc450(2018)10022546Donatien Rault
171 1:46.367fc450(2018)1921275jw
172 1:46.500fc450(2018)2453617raylan seagraves
173 1:46.867fc450(2018)3841073Okkar Romberg
174 1:46.882fc450(2018)98248687plug.co
175 1:47.343fc450(2018)91347165tj woods | development racing
176 1:47.359250sxf(2017)14452921FuzzyBloodpc
177 1:47.710250sxf(2018)29148246Logan Rieth | Bark MX IG
178 1:48.195fc450(2018)2757693Casey Ramp
179 1:48.437fc450(2018)11623684REED|AEKTIV YAMAHA
180 1:48.554rm250(2008)16654322DESBORO
181 1:48.703250sxf(2018)6853788KYLER
182 1:48.828fc450(2018)1450258Hunter Meekers
183 1:48.875250sxf(2018)8849180John Motocross | Penjamin City
184 1:49.343250sxf(2018)2951486ryry x rpm cworx
185 1:49.406fc450(2018)2337032Gavyn Thurgood | Hungy
186 1:49.695fc450(2018)41240794Hugo Gratigny | SividWorks
187 1:51.281fc450(2018)2832214Faded-Oblivion
188 1:51.710fc450(2018)2922964Dylan
189 1:52.062fc450(2018)13152972ryan131 I SB GFX
190 1:52.234250sxf(2018)4257283TRAVYPATTY|SDS RACING
191 1:52.539250sxf(2018)20032972O J | Fatchuns Racing
192 1:53.757250sxf(2018)28053128vieira
193 1:53.765fc450(2017)40254303Gage Alexander l Niblits & More l keyboardplayer
194 1:54.632fc450(2017)9755717Brandon Latulippe
195 1:54.992fc450(2018)6954370smegma
196 1:56.343fc450(2018)13455598Chris | TIRB
197 1:56.937250sxf(2018)11154245Dylan Wiles | Dw Media
198 1:57.343250sxf(2018)8950385Ales Hocevar I MFP-SLO
199 1:57.476250sxf(2018)34322130Sebascross
200 1:57.898fc450(2018)16150500Nito
201 1:58.062fc450(2018)55553361LF [bxd customs]
202 1:58.421fc450(2018)99942155Joe Motocross
203 1:58.570fc450(2017)55155780Fry Finley | Geese X OneWay Films
204 1:58.625fc450(2018)22146453Ero/S2K
205 1:58.679fc450(2018)5267811Isac Tingvall
206 2:03.062fc450(2018)1851069Brady Hill
207 2:03.398250sxf(2018)22055823Ashton\Oculus
208 2:05.039rm250(2008)553604DrDirtbike
209 2:05.976fc450(2018)2453662DUGANTHEMOST | FNR
210 2:06.289250sxf(2018)6154416nevaeh sauce
211 2:06.710crf450(2018)42031054krispy
212 2:06.921250sxf(2018)10250219AWILLY - CHUNDY MX
213 2:07.500fc450(2018)<551246NAF
214 2:09.312fc450(2017)40440849Daxton404
215 2:09.492rm250(2008)64553094urban
216 2:09.750fc450(2018)1454297baby putt
217 2:12.304fc450(2017)4464442JOE
218 2:12.585250sxf(2018)7248064jc
219 2:15.750250sxf(2018)1656465john bruwier
220 2:17.117250sxf(2018)99955278Joe Motocross
221 2:18.632fc450(2018)71035736CookiezWrld
222 2:18.789250sxf(2018)12955437Samty MX
223 2:22.296fc450(2017)44223180Oftedahl | Tea Tree
224 2:23.828250sxf(2018)3655920you
225 2:25.132250sxf(2018)39148892Adam Root | Privateer
226 2:27.593fc450(2018)4551834sacha reynaud
227 2:32.468250sxf(2018)99941701Joe Motocross
228 2:36.289fc450(2018)28756225smigg
229 2:52.437fc450(2018)12852678Harry Delaney
230 3:48.789250sxf(2018)39154549Adam Root | Privateer
231 4:02.890250sxf(2017)99951836Joe Motocross
232 6:51.484fc450(2018)26357039TESTICULE INSPECTOR
125 Lap Records
PosTimeBikeNo.UIDName
1 1:29.492rm12511140469lew
2 1:31.312rm1252753076sugma nutz
3 1:37.375rm12540457144Grant_Baumg
4 1:37.773rm1251830398Brock Van Winkle | Niblits & More
5 1:39.695125sx31044093Teo bouteiller/536-Motorsport
6 1:39.921rm12516216305Jeremy monceu
7 1:44.992rm12517350847Mason Cadieux| Anderson Graphics Co.
8 1:51.367rm12581750993steven
9 1:51.960rm12571759829Schreckomann|717
10 2:27.671rm12539148892Adam Root | Privateer
250f Lap Records
PosTimeBikeNo.UIDName
1 1:23.968250sxf(2018)122612Jo Shimoda | HRC Honda
2 1:24.390250sxf(2018)16229944filip larsson | phils x motolab
3 1:24.515250sxf(2018)70052841Brady Collins
4 1:26.492250sxf(2018)6946329evil jason weigandt
5 1:27.289250sxf(2018)2753076watu mean
6 1:27.468250sxf(2018)16216305Jeremy monceu
7 1:27.773250sxf(2018)10214999Theo Cavalli | Impact
8 1:28.234250sxf(2017)1153896Tyler Klipfel l @DrDewRacing
9 1:28.289250sxf(2018)17350847Mason Cadieux| Anderson Graphics Co.
10 1:28.289250sxf(2018)37144777Tom Lemoine | OF
11 1:28.460250sxf(2018)79940194Linus Hakansson | #BringBackCurvyBikes
12 1:29.226250sxf(2018)22632107Reid Templet | Privateer
13 1:29.250250sxf(2018)55120656Nick Niles | UGRC
14 1:30.046250sxf(2018)11751649NOT.SLO
15 1:30.406250sxf(2018)30918490Trevor Calldeer
16 1:30.656250sxf(2018)82337147Ashton| Cyber Dezigns
17 1:30.765250sxf(2017)14836655A-LASH | YOUTUBE
18 1:30.812250sxf(2018)1954100ra|VI$ion
19 1:31.195250sxf(2018)5874228Tristan Ratzlaff | FNR
20 1:31.453250sxf(2018)6452150LoopedLarry|PoorBoyzRacing|
21 1:31.742250sxf(2018)41851606Jernej Pipan
22 1:32.000250sxf(2018)27343628Everett McDonald | North Star
23 1:32.335250sxf(2018)22653512Reid Templet | Privateer
24 1:32.562250sxf(2018)10656308Brandon Osgood | Donny Racing
25 1:32.750250sxf(2018)14745824Elliott McDonald | North Star
26 1:33.304250sxf(2018)16435307Arvid Bodin
27 1:33.343250sxf(2018)71759829Schreckomann|717
28 1:33.539250sxf(2018)10556300Donovan liebl | Donny Racing
29 1:33.640250sxf(2018)21445075Bones
30 1:34.031250sxf(2018)63049559Alexander Gjemble
31 1:34.296250sxf(2018)2467772Sexy sexton
32 1:34.890250sxf(2018)1841975Travis bixby
33 1:35.117250sxf(2018)7453723polaco
34 1:35.710250sxf(2018)2039626antonin rondelle|JM Factory Team
35 1:35.789250sxf(2018)10849486Joseph Lagueux|Donny Racing
36 1:36.203250sxf(2018)7948236JS'794 / AIRLINE X OF
37 1:36.343250sxf(2018)4342594LA|#JESUS IS LORD
38 1:36.734250sxf(2018)51938067FICK
39 1:36.789250sxf(2018)44454460Sibbo444 I SB GFX
40 1:36.851250sxf(2018)42157038antonin bernard
41 1:37.367250sxf(2017)5745152wet cement
42 1:37.468250sxf(2018)14856110Sammy Hummel | Jim's
43 1:38.414250sxf(2018)3250146Joe Hirst
44 1:38.609250sxf(2018)3257491Joe Hirst
45 1:38.625250sxf(2018)85237645Riley Clapp | FNR
46 1:39.085250sxf(2017)2334231sidjey
47 1:39.140250sxf(2018)2855485brantley tursky |velocity x turkey prod #doitfordale
48 1:39.281250sxf(2018)4851465ray sist
49 1:39.742250sxf(2018)2747913Karim Devisscher
50 1:40.578250sxf(2018)41144145conner
51 1:40.773250sxf(2018)11854217cruz peterson | DW media
52 1:40.992250sxf(2018)41344333parker
53 1:41.210250sxf(2018)12155521Speeden | Axiom
54 1:41.257250sxf(2018)60042720timrob
55 1:41.343250sxf(2018)3854669Ian38
56 1:41.820250sxf(2018)13733020Hunter Fuller | Elevated
57 1:41.914250sxf(2018)61151051Glynno
58 1:42.671250sxf(2018)11526105Quentin Vauzelle|#115
59 1:42.960250sxf(2018)72238299Chandler Beveridge
60 1:43.390250sxf(2018)9556302Corbin Mennen
61 1:43.820250sxf(2018)19131320JOHAN CLETO
62 1:44.023250sxf(2018)1748527bryce netherton
63 1:44.289250sxf(2018)24751254Dominic Kilpatrick|@247Racing
64 1:44.304250sxf(2018)6915895Jack Chambers | PRMX Kawasaki
65 1:44.546250sxf(2018)6848170Jasey Vlot I @DrDewRacing
66 1:44.843250sxf(2018)6758600naynay
67 1:44.992250sxf(2018)72128640colb
68 1:45.453250sxf(2018)70237050harrison mccann 702
69 1:45.453250sxf(2018)19148339Jwain
70 1:45.890250sxf(2018)1453122Senie
71 1:47.359250sxf(2017)14452921FuzzyBloodpc
72 1:47.710250sxf(2018)29148246Logan Rieth | Bark MX IG
73 1:48.703250sxf(2018)6853788KYLER
74 1:48.835250sxf(2018)45633433de kutte kietelaar
75 1:48.875250sxf(2018)8849180John Motocross | Penjamin City
76 1:49.343250sxf(2018)2951486ryry x rpm cworx
77 1:50.562250sxf(2018)22222097cooper nicol
78 1:52.234250sxf(2018)4257283TRAVYPATTY|SDS RACING
79 1:52.539250sxf(2018)20032972O J | Fatchuns Racing
80 1:52.984250sxf(2018)44155650Ricco Hardy | PFR
81 1:53.757250sxf(2018)28053128vieira
82 1:56.937250sxf(2018)11154245Dylan Wiles | Dw Media
83 1:57.343250sxf(2018)8950385Ales Hocevar I MFP-SLO
84 1:57.476250sxf(2018)34322130Sebascross
85 2:01.843250sxf(2018)87443629Carson English
86 2:03.398250sxf(2018)22055823Ashton\Oculus
87 2:06.289250sxf(2018)6154416nevaeh sauce
88 2:06.921250sxf(2018)10250219AWILLY - CHUNDY MX
89 2:12.585250sxf(2018)7248064jc
90 2:13.195250sxf(2018)64553094urban645
91 2:15.750250sxf(2018)1656465john bruwier
92 2:17.117250sxf(2018)99955278Joe Motocross
93 2:18.789250sxf(2018)12955437Samty MX
94 2:23.828250sxf(2018)3655920you
95 2:25.132250sxf(2018)39148892Adam Root | Privateer
96 2:32.468250sxf(2018)99941701Joe Motocross
97 2:37.132250sxf(2018)11759554freitas
98 3:48.789250sxf(2018)39154549Adam Root | Privateer
99 4:02.890250sxf(2017)99951836Joe Motocross
250 Lap Records
PosTimeBikeNo.UIDName
1 1:34.046rm250(2008)72413789Kyle Morgan | Glusta
2 1:38.843rm250(2008)ZYN57434zyndrome | SOE
3 1:48.554rm250(2008)16654322DESBORO
4 2:05.039rm250(2008)553604DrDirtbike
5 2:09.492rm250(2008)64553094urban
450f Lap Records
PosTimeBikeNo.UIDName
1 1:20.843fc450(2017)24224067Josh Collins | Burbmoto
2 1:21.468fc450(2017)138192alfie richards
3 1:22.156fc450(2018)1338842Lucas Arriagada | @DrDewRacing
4 1:22.820crf450(2018)4431547Seth Shirley
5 1:22.898fc450(2018)15313468Jack Rogers | Team Tubesteak
6 1:22.984fc450(2018)61819712Louis Bunday | Yeti #OnTheHuh
7 1:23.234fc450(2017)55431644Miika Kiviranta
8 1:23.375fc450(2017)32645660rhys harris | mantis bombing
9 1:23.679fc450(2018)22635734sterling lofthouse | @DrDewRacing
10 1:23.750fc450(2018)9934010Guillem Farres
11 1:24.101fc450(2018)7924662ConnerBurger|Covenant Racing
12 1:24.117fc450(2017)2018347Joey Carter | @DrDewRacing
13 1:24.382fc450(2017)54348970Laban alm
14 1:24.500fc450(2017)70052841Brady Collins | Blackout Decals
15 1:24.515fc450(2017)41751453Reese Riordan | @DrDewRacing
16 1:24.750fc450(2017)10138230Brandon Larsen | Atlas.co
17 1:25.125fc450(2018)71459135Bryson Brown | Dw Media
18 1:25.320fc450(2018)31351967Alexis Beaudoin | privateer
19 1:25.703fc450(2018)70538917Chris Colantoni
20 1:26.031fc450(2018)7744535tommy morgan
21 1:26.265fc450(2017)29222427Colin Libby (Clibby) | BouttaBeBlackOut
22 1:26.593fc450(2018)63647947kp
23 1:26.960fc450(2017)8419120Clean Out Curtis | Professional Goon
24 1:27.101fc450(2018)24640466Ocean Christensen
25 1:27.500350sxf(2013)60140180Chubs Peterson
26 1:27.554fc450(2017)2843073HOLE ON TO ER RAN
27 1:27.593fc450(2017)24027786Jack Reid | Privateer
28 1:27.992fc450(2017)1829547cayne46 | HUNGYY
29 1:28.117fc450(2017)14856110Sammy Hummel | Jim's
30 1:28.382fc450(2017)92149106Philipp Eiserfey
31 1:28.656crf450(2018)13644056Tayton | Javers Racing
32 1:28.781fc450(2018)26822137Cudi
33 1:28.804fc450(2018)39283trawwww
34 1:28.820fc450(2018)4149841Bryson Barnwell | @bean_mxb on tiktok
35 1:28.953fc450(2018)7159885rosito
36 1:29.117fc450(2017)1556300Donovan liebl
37 1:29.296fc450(2018)88144342BrocBarnett | TQZY Racing Team
38 1:29.429fc450(2017)62643611Land0n R0bert$
39 1:29.460fc450(2018)41843101Ace Enloe
40 1:30.460fc450(2018)24144167Brady Olson | D1no #4AZ39
41 1:30.632fc450(2018)9732086Inge-Racing
42 1:30.664fc450(2018)2734294Mael Garnier |SBR
43 1:30.671fc450(2018)2753076cars027
44 1:30.773fc450(2018)1440286Cohen Hamby
45 1:31.234fc450(2018)1140469lew
46 1:31.257fc450(2018)4249714MUYLLE THEO
47 1:31.281fc450(2018)4753372jayfitz
48 1:31.656crf450(2018)1954100ra|VI$ion
49 1:31.671fc450(2017)33568fuck gino smith
50 1:32.156fc450(2018)29234741jay_chamb | MOTO & GOLF
51 1:32.171crf450(2018)13733020Hunter Fuller | Elevated
52 1:32.242fc450(2018)3250146Joe Hirst
53 1:32.328fc450(2018)22742211Lane Gunning|BBR Decals
54 1:32.625fc450(2018)25259891Jayden Rodriguez | Niblits & More |
55 1:33.359crf450(2017)22221769Coffeetits | 222
56 1:33.671fc450(2018)3239018LEO blin
57 1:34.031fc450(2018)73233746John W
58 1:34.062fc450(2018)9746614MG #97
59 1:34.546fc450(2018)4540906mando
60 1:35.039fc450(2017)14317023Eriksson|
61 1:35.171fc450(2018)3539710Lucas Mercier
62 1:35.304fc450(2018)2039626antonin rondelle|JM Factory Team
63 1:35.421fc450(2018)91915483Doug Bauer | GWR
64 1:35.671fc450(2018)13716613JDB
65 1:35.914fc450(2017)28815895Cody Akers | Boots House
66 1:35.968fc450(2017)26210352Gustavo Navega |
67 1:36.015fc450(2018)83452975lsenty834 I SB GFX
68 1:36.156fc450(2017)6041904Tiouis Vaillant
69 1:36.367fc450(2018)45633433jackb
70 1:36.437crf450(2018)71753702huuutsin
71 1:36.640fc450(2017)10252873Ryan Savage
72 1:36.812crf450(2018)46335067Alex "Whiskers" Clark
73 1:37.250fc450(2017)5256308Brandon Osgood
74 1:37.265crf450(2018)11759554Freitas | TRYHARD
75 1:37.289fc450(2018)2252340Tate Reed / Atlas.co
76 1:37.515fc450(2017)2649178Aidan
77 1:37.539fc450(2018)80445318liam
78 1:37.890fc450(2017)92459492Cainen Irwin | FNR
79 1:38.132fc450(2017)20449440Hiury Andrade
80 1:38.179fc450(2017)2855485brantley tursky |velocity x turkey prod #doitfordale
81 1:38.320fc450(2017)42051692Gnome Sayan
82 1:38.578fc450(2018)58030033Stefan Ciarafoni
83 1:38.640fc450(2017)99945152Joe Motocross
84 1:38.898fc450(2017)2273965Dellred
85 1:39.500fc450(2018)87443629Carson English
86 1:39.585350sxf(2017)71556612THOMAS "DEMETRIOUS JAMES" MEDINE | NIBLITS & MORE
87 1:39.664fc450(2018)13632497BRANDIS DVORAK
88 1:39.789crf450(2018)6946329evil jason weigandt
89 1:40.007fc450(2018)42718109turkey
90 1:40.164fc450(2018)30918490Trevor Calldeer
91 1:40.210fc450(2018)81750993steven
92 1:40.484fc450(2018)47452135Brandon Keen
93 1:40.523fc450(2018)24559466e.martinez
94 1:40.585fc450(2018)31056797Tanner Baughman | TB310 | XLR8
95 1:40.710fc450(2017)61646282Levi Dertien
96 1:40.835fc450(2017)4840411Chad Stonier | csdmotorsports
97 1:41.523fc450(2018)72851171Connor Hargett| RPC Racing
98 1:42.054fc450(2018)84257301Angelo Baraglioli
99 1:42.093fc450(2018)44155650Ricco Hardy | PFR
100 1:44.062fc450(2018)ZYN57434zyndrome | SOE
101 1:44.140fc450(2018)61557565Dollynho
102 1:44.218fc450(2018)6811057Anton Stenberg
103 1:44.312fc450(2018)34327634Trapper Naef | CROW GEAR
104 1:44.468fc450(2018)22222097cooper nicol
105 1:44.773fc450(2017)80153909Jack Hendrix SDMF
106 1:45.164fc450(2017)48155600TJ I SPX.COM
107 1:45.187crf450(2018)23222715Tristo | @Moto.Fails
108 1:45.859fc450(2017)72034160Dennis|DrDew-wannabe
109 1:46.343fc450(2017)22441423Gabe Heffron
110 1:46.359fc450(2018)10022546Donatien Rault
111 1:46.367fc450(2018)1921275jw
112 1:46.500fc450(2018)2453617raylan seagraves
113 1:46.867fc450(2018)3841073Okkar Romberg
114 1:46.882fc450(2018)98248687plug.co
115 1:47.343fc450(2018)91347165tj woods | development racing
116 1:48.195fc450(2018)2757693Casey Ramp
117 1:48.437fc450(2018)11623684REED|AEKTIV YAMAHA
118 1:48.546fc450(2018)9556302Corbin Mennen
119 1:48.828fc450(2018)1450258Hunter Meekers
120 1:49.406fc450(2018)2337032Gavyn Thurgood | Hungy
121 1:49.695fc450(2018)41240794Hugo Gratigny | SividWorks
122 1:50.406fc450(2018)3854669Ian38
123 1:51.281fc450(2018)2832214Faded-Oblivion
124 1:51.500fc450(2018)1830398Brock Van Winkle | Niblits & More
125 1:51.710fc450(2018)2922964Dylan
126 1:52.062fc450(2018)13152972ryan131 I SB GFX
127 1:53.765fc450(2017)40254303Gage Alexander l Niblits & More l keyboardplayer
128 1:53.945fc450(2018)31044093teo bouteiller/536-Motorsport
129 1:54.632fc450(2017)9755717Brandon Latulippe
130 1:54.992fc450(2018)6954370smegma
131 1:56.343fc450(2018)13455598Chris | TIRB
132 1:57.898fc450(2018)16150500Nito
133 1:58.062fc450(2018)55553361LF [bxd customs]
134 1:58.421fc450(2018)99942155Joe Motocross
135 1:58.570fc450(2017)55155780Fry Finley | Geese X OneWay Films
136 1:58.625fc450(2018)22146453Ero/S2K
137 1:58.679fc450(2018)5267811Isac Tingvall
138 1:59.250fc450(2018)2747913Karim Devisscher
139 2:03.062fc450(2018)1851069Brady Hill
140 2:05.976fc450(2018)2453662DUGANTHEMOST | FNR
141 2:06.710crf450(2018)42031054krispy
142 2:07.500fc450(2018)<551246NAF
143 2:09.312fc450(2017)40440849Daxton404
144 2:09.750fc450(2018)1454297baby putt
145 2:12.304fc450(2017)4464442JOE
146 2:18.632fc450(2018)71035736CookiezWrld
147 2:22.296fc450(2017)44223180Oftedahl | Tea Tree
148 2:27.593fc450(2018)4551834sacha reynaud
149 2:36.289fc450(2018)28756225smigg
150 2:52.437fc450(2018)12852678Harry Delaney
151 6:51.484fc450(2018)26357039TESTICULE INSPECTOR